星链-31370 (STARLINK-31370 )

导读 | 豆包AI

STARLINK-31370是美国太空探索技术公司星链互联网星座的一员,于2024年4月17日发射升空,属于星链星座扩容任务的组成部分。该卫星旨在为全球范围提供低延迟、高速率的宽带互联网服务,尤其覆盖偏远、网络基础设施匮乏区域,助力全球互联覆盖网络建设推进。

基本信息
目录编号:
59520
目录名称:
STARLINK-31370
国际标识:
2024-073K
轨道中心:
EARTH
卫星名称:
星链-31370
卫星全名:
星链-31370 (STARLINK-31370 )
卫星状态:
在轨 (已飞行697 天)
发射日期:
2024-04-17 UTC
国别 :
美国 (US)
星等 :
--
轨道信息
数据来源 国际轨道数据
星历时间: 2026-03-15T04:34:32+0800
23小时前
查看轨道信息
半长轴: 6861.185km
偏心率: 0.0001278
轨道倾角: 43.003°
近地点辐角 254.622°
升交点赤经 289.034°
平近点角 105.449°
近地点: 482.171km
远地点: 483.925km
周期: 94.267分钟
每日圈数: 15.275805
详细信息
固有亮度:
5
最大亮度:
1.5
卫星平台:
Starlink v2.0 mini
覆盖范围:
全球
运营商:
太空探索技术公司
运营商所在国:
美国
制造商(研发单位):
太空探索技术公司
制造商所在国:
美国
使用方式:
暂无
卫星简介
星链(Starlink)计划是由太空探索技术公司(SpaceX)提出的一个巨型低轨卫星互联网星座项目,计划在2019年至2024年间在太空搭建由约1.2万颗卫星组成的“星链”网络,其中1584颗将部署在地球上空550千米处的近地轨道,并从2020年开始工作。该卫星仍在工作。
2D轨道图
3D轨道图
轨道高度分析图
轨道倾角分析图
轨道综合分析图
查看轨道综合分析图